TimeWET,TemperatureF,Dew PointF,Humidity,Sea Level PressureIn,VisibilityMPH,Wind Direction,Wind SpeedMPH,Gust SpeedMPH,PrecipitationIn,Events,Conditions,WindDirDegrees,DateUTC
12:00 AM,48,42,74,30.33,6,Calm,Calm,,,,,,2014-02-12 00:00:00
12:00 AM,48.2,42.8,82,30.30,-9999.0,Calm,Calm,-,N/A,,Clear,0,2014-02-12 00:00:00
12:30 AM,48.2,42.8,82,30.30,-9999.0,Calm,Calm,-,N/A,,Clear,0,2014-02-12 00:30:00
1:00 AM,48.2,42.8,82,30.30,-9999.0,Calm,Calm,-,N/A,,Clear,0,2014-02-12 01:00:00
1:30 AM,48.2,42.8,82,30.27,6.2,South,1.2,-,N/A,,Unknown,180,2014-02-12 01:30:00
2:00 AM,48.2,42.8,82,30.27,-9999.0,NNE,1.2,-,N/A,,Clear,30,2014-02-12 02:00:00
2:30 AM,46.4,42.8,87,30.27,-9999.0,Variable,2.3,-,N/A,,Clear,0,2014-02-12 02:30:00
3:00 AM,48,43,77,30.30,6,SE,3.5,,,,,130,2014-02-12 03:00:00
3:00 AM,48.2,42.8,82,30.27,6.2,ESE,3.5,-,N/A,,Unknown,120,2014-02-12 03:00:00
3:30 AM,46.4,42.8,87,30.27,6.2,SSE,2.3,-,N/A,,Unknown,160,2014-02-12 03:30:00
4:00 AM,46.4,42.8,87,30.27,6.2,East,3.5,-,N/A,,Unknown,90,2014-02-12 04:00:00
4:30 AM,46.4,42.8,87,30.27,6.2,ENE,2.3,-,N/A,,Unknown,70,2014-02-12 04:30:00
5:00 AM,44.6,42.8,93,30.27,-9999.0,NE,3.5,-,N/A,,Clear,40,2014-02-12 05:00:00
5:30 AM,44.6,41.0,87,30.27,-9999.0,East,2.3,-,N/A,,Clear,90,2014-02-12 05:30:00
6:00 AM,43,40,87,30.32,6,SSE,3.5,,,,,160,2014-02-12 06:00:00
6:00 AM,42.8,41.0,93,30.27,-9999.0,SSE,3.5,-,N/A,,Clear,160,2014-02-12 06:00:00
6:30 AM,42.8,41.0,93,30.27,-9999.0,East,2.3,-,N/A,,Clear,80,2014-02-12 06:30:00
7:00 AM,42.8,41.0,93,30.27,-9999.0,ENE,3.5,-,N/A,,Clear,60,2014-02-12 07:00:00
7:30 AM,41.0,39.2,93,30.30,-9999.0,East,3.5,-,N/A,,Clear,80,2014-02-12 07:30:00
8:00 AM,44.6,42.8,93,30.30,-9999.0,East,4.6,-,N/A,,Clear,100,2014-02-12 08:00:00
8:30 AM,46.4,42.8,87,30.30,5.0,East,4.6,-,N/A,,Unknown,100,2014-02-12 08:30:00
9:00 AM,50,44,72,30.34,6,East,5.8,,,,,100,2014-02-12 09:00:00
9:00 AM,50.0,42.8,76,30.30,-9999.0,ESE,5.8,-,N/A,,Clear,110,2014-02-12 09:00:00
9:30 AM,46.4,42.8,87,30.30,5.0,East,4.6,-,N/A,,Unknown,100,2014-02-12 09:30:00
10:00 AM,55.4,44.6,67,30.30,-9999.0,East,3.5,-,N/A,,Clear,100,2014-02-12 10:00:00
10:30 AM,57.2,44.6,63,30.30,-9999.0,Variable,1.2,-,N/A,,Clear,0,2014-02-12 10:30:00
11:00 AM,59.0,42.8,55,30.30,-9999.0,NE,4.6,-,N/A,,Clear,40,2014-02-12 11:00:00
11:30 AM,60.8,41.0,48,30.30,-9999.0,NNE,4.6,-,N/A,,Clear,20,2014-02-12 11:30:00
11:47 AM,62,42,36,30.28,6,NNE,4.6,,,,,20,2014-02-12 11:47:00
12:00 PM,62.6,41.0,45,30.30,-9999.0,NNE,4.6,-,N/A,,Clear,20,2014-02-12 12:00:00
12:30 PM,62.6,41.0,45,30.27,-9999.0,NNE,4.6,-,N/A,,Clear,30,2014-02-12 12:30:00
1:00 PM,64.4,39.2,40,30.27,-9999.0,NE,6.9,-,N/A,,Clear,40,2014-02-12 13:00:00
1:30 PM,64.4,42.8,45,30.27,-9999.0,North,6.9,-,N/A,,Clear,360,2014-02-12 13:30:00
2:00 PM,66.2,42.8,43,30.27,-9999.0,Variable,5.8,-,N/A,,Clear,0,2014-02-12 14:00:00
2:30 PM,68.0,44.6,43,30.24,-9999.0,Variable,4.6,-,N/A,,Clear,0,2014-02-12 14:30:00
3:00 PM,68,45,32,30.21,6,North,4.6,,,,,10,2014-02-12 15:00:00
3:00 PM,68.0,44.6,43,30.24,-9999.0,Variable,4.6,-,N/A,,Clear,0,2014-02-12 15:00:00
3:30 PM,68.0,44.6,43,30.24,-9999.0,NNE,8.1,-,N/A,,Clear,30,2014-02-12 15:30:00
4:00 PM,68.0,42.8,40,30.24,-9999.0,North,6.9,-,N/A,,Clear,360,2014-02-12 16:00:00
4:30 PM,68.0,44.6,43,30.24,-9999.0,ENE,8.1,-,N/A,,Clear,60,2014-02-12 16:30:00
5:00 PM,68.0,44.6,43,30.24,-9999.0,NE,6.9,-,N/A,,Clear,50,2014-02-12 17:00:00
5:30 PM,66.2,44.6,46,30.24,-9999.0,ENE,8.1,-,N/A,,Clear,60,2014-02-12 17:30:00
6:00 PM,65,44,36,30.21,6,NE,6.9,,,,,50,2014-02-12 18:00:00
6:00 PM,66.2,42.8,43,30.24,-9999.0,NE,8.1,-,N/A,,Clear,50,2014-02-12 18:00:00
6:30 PM,62.6,44.6,52,30.24,-9999.0,ENE,6.9,-,N/A,,Clear,70,2014-02-12 18:30:00
7:00 PM,60.8,44.6,55,30.24,-9999.0,ENE,5.8,-,N/A,,Clear,70,2014-02-12 19:00:00
7:30 PM,59.0,42.8,55,30.27,-9999.0,ENE,4.6,-,N/A,,Clear,70,2014-02-12 19:30:00
8:00 PM,57.2,44.6,63,30.27,-9999.0,ENE,4.6,-,N/A,,Clear,70,2014-02-12 20:00:00
8:30 PM,57.2,44.6,63,30.27,-9999.0,ENE,4.6,-,N/A,,Clear,70,2014-02-12 20:30:00
9:00 PM,57,45,54,30.28,6,East,3.5,,,,,80,2014-02-12 21:00:00
9:00 PM,57.2,44.6,63,30.27,-9999.0,ENE,3.5,-,N/A,,Clear,70,2014-02-12 21:00:00
9:30 PM,55.4,46.4,72,30.27,-9999.0,East,5.8,-,N/A,,Clear,100,2014-02-12 21:30:00
10:00 PM,53.6,44.6,72,30.30,-9999.0,East,3.5,-,N/A,,Clear,80,2014-02-12 22:00:00
10:30 PM,53.6,44.6,72,30.30,-9999.0,East,3.5,-,N/A,,Clear,100,2014-02-12 22:30:00
11:00 PM,53.6,44.6,72,30.30,-9999.0,SE,4.6,-,N/A,,Clear,130,2014-02-12 23:00:00
11:30 PM,53.6,46.4,77,30.30,-9999.0,NE,3.5,-,N/A,,Clear,40,2014-02-12 23:30:00